Date String (YYYY-MM-DD hh:mm:ss) UTC,Instrument flags,Ambient pressure (hPa),Sample flow (lpm),Bypass flow (lpm),Sample temperature (°C),Ambient temperature (°C),ASC tube jacket temperature (°C),LED temperature (°C),Box temperature (°C),Sample RH (%),Span deviation,Mass concentration (μg/m³),Mass concentration (μg/m³),Mass concentration (μg/m³)
DateTimeUTC,F1_M11,P_M11,Q1_M11,Q2_M11,T1_M11,T2_M11,T3_M11,T4_M11,T5_M11,U1_M11,ZSPAN_M11,X2_M11,X0_M11,X1_M11
2023-02-20 11:00:00,,0814.9,5.04,0.00,22.4,21.3,00.0,31.2,24.1,09.5,0000.0,0001.76,0008.27,0000.88
2023-02-20 11:01:00,,0814.9,5.00,0.00,22.3,21.1,00.0,31.2,24.0,09.4,0000.0,0001.77,0008.60,0000.88
2023-02-20 11:02:00,,0814.9,4.99,0.00,22.3,20.9,00.0,31.2,24.0,09.6,0000.0,0001.74,0008.59,0000.88
2023-02-20 11:03:00,,0815.0,4.98,0.00,22.3,20.8,00.0,31.2,23.9,09.8,0000.0,0001.73,0008.28,0000.87
2023-02-20 11:04:00,,0814.9,5.01,0.00,22.3,20.6,00.0,31.2,23.9,09.6,0000.0,0001.68,0007.93,0000.85
2023-02-20 11:05:00,,0814.9,5.00,0.00,22.2,20.5,00.0,31.2,23.9,09.5,0000.0,0001.66,0007.77,0000.85
2023-02-20 11:06:00,,0814.9,5.01,0.00,22.2,20.4,00.0,31.2,23.8,09.7,0000.0,0001.64,0007.69,0000.85
2023-02-20 11:07:00,,0814.9,5.00,0.00,22.2,20.3,00.0,31.2,23.8,09.8,0000.0,0001.58,0007.57,0000.86
2023-02-20 11:08:00,,0814.8,5.00,0.00,22.1,20.2,00.0,31.2,23.7,09.7,0000.0,0001.58,0006.73,0000.85
2023-02-20 11:09:00,,0814.8,5.00,0.00,22.1,20.1,00.0,31.1,23.6,09.7,0000.0,0001.54,0006.27,0000.85
2023-02-20 11:10:00,,0814.9,5.00,0.00,22.0,20.0,00.0,31.1,23.6,09.7,0000.0,0001.50,0005.10,0000.85
2023-02-20 11:11:00,,0814.8,5.00,0.00,22.0,19.9,00.0,31.1,23.5,09.9,0000.0,0001.47,0003.72,0000.85
2023-02-20 11:12:00,,0814.8,5.00,0.00,21.9,19.9,00.0,31.1,23.5,09.9,0000.0,0001.39,0002.92,0000.85
2023-02-20 11:13:00,,0814.9,5.00,0.00,21.9,19.8,00.0,31.0,23.4,09.8,0000.0,0001.36,0003.10,0000.85
2023-02-20 11:14:00,,0814.9,4.99,0.00,21.8,19.8,00.0,31.0,23.4,09.8,0000.0,0001.36,0003.11,0000.85
2023-02-20 11:15:00,,0815.0,5.01,0.00,21.8,20.2,00.0,30.9,23.5,09.9,0000.0,0001.33,0003.08,0000.86
2023-02-20 11:16:00,,0814.8,5.00,0.00,21.9,21.6,00.0,30.9,23.8,09.9,0000.0,0001.37,0003.30,0000.86
2023-02-20 11:17:00,,0814.9,5.03,0.00,22.1,22.8,00.0,30.9,24.2,09.8,0000.0,0001.33,0004.90,0000.86
2023-02-20 11:18:00,,0814.9,4.98,0.00,22.2,22.7,00.0,30.9,24.2,09.7,0000.0,0001.37,0005.81,0000.86
2023-02-20 11:19:00,,0814.9,5.01,0.00,22.2,22.1,00.0,31.0,24.1,09.7,0000.0,0001.37,0005.83,0000.86
2023-02-20 11:20:00,,0815.0,4.99,0.00,22.2,21.7,00.0,31.0,24.0,09.7,0000.0,0001.37,0005.87,0000.84
2023-02-20 11:21:00,,0814.9,5.00,0.00,22.2,21.3,00.0,31.0,24.0,09.7,0000.0,0001.38,0005.91,0000.83
2023-02-20 11:22:00,,0815.0,5.01,0.00,22.2,21.0,00.0,31.1,23.9,09.7,0000.0,0001.35,0005.92,0000.81
2023-02-20 11:23:00,,0814.8,5.00,0.00,22.2,20.8,00.0,31.1,23.9,09.8,0000.0,0001.41,0006.08,0000.81
2023-02-20 11:24:00,,0814.9,5.00,0.00,22.1,20.6,00.0,31.1,23.8,09.9,0000.0,0001.48,0005.76,0000.81
2023-02-20 11:25:00,,0814.8,5.01,0.00,22.1,20.5,00.0,31.1,23.8,09.9,0000.0,0001.51,0005.82,0000.82
2023-02-20 11:26:00,,0814.9,5.00,0.00,22.1,20.4,00.0,31.1,23.8,09.9,0000.0,0001.59,0006.67,0000.83
2023-02-20 11:27:00,,0814.6,5.00,0.00,22.1,20.3,00.0,31.0,23.7,09.9,0000.0,0001.59,0007.01,0000.82
2023-02-20 11:28:00,,0814.9,5.00,0.00,22.0,20.2,00.0,31.0,23.7,09.9,0000.0,0001.56,0005.65,0000.82
2023-02-20 11:29:00,,0814.9,5.01,0.00,22.0,20.2,00.0,31.0,23.7,09.8,0000.0,0001.57,0004.46,0000.82
2023-02-20 11:30:00,,0814.9,5.00,0.00,22.0,20.1,00.0,31.0,23.6,09.9,0000.0,0001.60,0004.50,0000.82
2023-02-20 11:31:00,,0814.9,5.00,0.00,22.0,20.1,00.0,31.0,23.6,10.0,0000.0,0001.56,0004.37,0000.82
2023-02-20 11:32:00,,0814.8,5.00,0.00,21.9,20.0,00.0,31.0,23.5,09.9,0000.0,0001.59,0004.41,0000.84
2023-02-20 11:33:00,,0815.1,4.99,0.00,21.9,20.0,00.0,30.9,23.6,09.9,0000.0,0001.56,0004.28,0000.83
2023-02-20 11:34:00,,0814.9,5.00,0.00,21.9,20.0,00.0,30.9,23.6,09.9,0000.0,0001.50,0005.00,0000.82
2023-02-20 11:35:00,,0814.9,5.00,0.00,21.9,20.0,00.0,30.9,23.5,09.9,0000.0,0001.47,0005.21,0000.83
2023-02-20 11:36:00,,0815.0,5.00,0.00,21.9,20.0,00.0,30.9,23.6,10.0,0000.0,0001.44,0005.75,0000.82
2023-02-20 11:37:00,,0815.2,5.01,0.00,21.9,20.0,00.0,30.9,23.6,10.1,0000.0,0001.37,0005.82,0000.80
2023-02-20 11:38:00,,0815.2,5.00,0.00,21.9,20.5,00.0,30.8,23.6,10.1,0000.0,0001.34,0005.22,0000.80
2023-02-20 11:39:00,,0815.3,4.98,0.00,22.0,21.8,00.0,30.8,23.9,10.0,0000.0,0001.36,0005.32,0000.79
2023-02-20 11:40:00,,0815.0,5.04,0.00,22.1,22.9,00.0,30.8,24.2,09.9,0000.0,0001.32,0005.22,0000.79
2023-02-20 11:41:00,,0815.2,5.02,0.00,22.2,22.8,00.0,30.9,24.3,09.8,0000.0,0001.33,0005.33,0000.79
2023-02-20 11:42:00,,0815.4,5.00,0.00,22.3,22.3,00.0,30.9,24.2,09.8,0000.0,0001.41,0005.58,0000.82
2023-02-20 11:43:00,,0815.3,5.00,0.00,22.3,21.9,00.0,31.0,24.1,09.8,0000.0,0001.42,0005.62,0000.82
2023-02-20 11:44:00,,0815.1,5.00,0.00,22.3,21.6,00.0,31.0,24.1,09.9,0000.0,0001.51,0005.88,0000.84
2023-02-20 11:45:00,,0815.0,5.01,0.00,22.3,21.3,00.0,31.0,24.1,09.9,0000.0,0001.58,0005.62,0000.86
2023-02-20 11:46:00,,0815.1,4.99,0.00,22.3,21.1,00.0,31.1,24.0,09.9,0000.0,0001.56,0005.72,0000.84
2023-02-20 11:47:00,,0815.2,4.99,0.00,22.3,21.0,00.0,31.1,24.0,09.8,0000.0,0001.53,0005.26,0000.83
2023-02-20 11:48:00,,0815.2,5.01,0.00,22.3,20.8,00.0,31.1,24.0,10.0,0000.0,0001.55,0004.09,0000.85
2023-02-20 11:49:00,,0814.9,5.01,0.00,22.2,20.7,00.0,31.1,24.0,10.0,0000.0,0001.56,0004.21,0000.84
2023-02-20 11:50:00,,0814.9,5.01,0.00,22.2,20.7,00.0,31.1,23.9,10.1,0000.0,0001.56,0005.07,0000.84
2023-02-20 11:51:00,,0815.2,5.00,0.00,22.2,20.6,00.0,31.1,24.0,10.1,0000.0,0001.57,0005.30,0000.84
2023-02-20 11:52:00,,0815.2,5.00,0.00,22.2,20.6,00.0,31.1,23.9,10.0,0000.0,0001.55,0005.18,0000.84
2023-02-20 11:53:00,,0815.2,5.00,0.00,22.2,20.5,00.0,31.1,23.9,10.0,0000.0,0001.48,0004.94,0000.83
2023-02-20 11:54:00,,0815.1,5.01,0.00,22.2,20.5,00.0,31.1,23.9,10.0,0000.0,0001.46,0005.01,0000.82
2023-02-20 11:55:00,,0815.0,5.01,0.00,22.2,20.4,00.0,31.1,23.9,10.0,0000.0,0001.41,0005.32,0000.82
2023-02-20 11:56:00,,0814.8,5.00,0.00,22.1,20.4,00.0,31.1,23.9,10.1,0000.0,0001.35,0005.18,0000.80
2023-02-20 11:57:00,,0814.9,5.00,0.00,22.1,20.4,00.0,31.1,23.8,10.1,0000.0,0001.32,0004.39,0000.79
2023-02-20 11:58:00,,0814.9,5.01,0.00,22.1,20.3,00.0,31.1,23.8,10.1,0000.0,0001.30,0004.37,0000.78
2023-02-20 11:59:00,,0814.9,5.00,0.00,22.1,20.3,00.0,31.0,23.8,10.1,0000.0,0001.30,0004.44,0000.76
